Weather History for Kodiak, AK

Change the Weather History Date:

Saturday, February 16, 2013

  Actual Average Record
Temperature  
Mean Temperature 26 °F 31 °F  
Max Temperature 35 °F 36 °F 52 °F (1986)
Min Temperature 16 °F 26 °F -8 °F (1982)
Degree Days  
Heating Degree Days 39 34  
Month to date heating degree days 504 553  
Since 1 July heating degree days 5522 5467  
Cooling Degree Days 0    
Month to date cooling degree days 0  
Year to date cooling degree days 0  
Moisture  
Dew Point 24 °F    
Average Humidity 0    
Maximum Humidity 0    
Minimum Humidity 0    
Precipitation  
Precipitation 0.22 in 0.21 in 1.45 in (2010)
Month to date precipitation 4.49 3.68  
Year to date precipitation 14.02 11.97  
Snow  
Snow 2.00 in 0.60 in 8.00 in (1984)
Month to date snowfall 6.8 8.7  
Since 1 July snowfall 36.2 43.0  
Snow Depth 1.00 in    
Sea Level Pressure  
Sea Level Pressure 29.78 in    
Wind  
Wind Speed 6 mph (SE)    
Max Wind Speed 18 mph    
Max Gust Speed 21 mph    
Visibility 6 miles    
Events Rain , Snow    
T = Trace of Precipitation, MM = Missing Value Source: NWS Daily Summary

Daily Weather History Graph

Daily Weather History Graph

Search for Another Location

Airport:

Trip Planner

Search our weather history database for the weather conditions in past years. The results will help you decide how hot, cold, wet, or windy it might be!

Date:

Astronomy

Feb. 16, 2013 Rise Set
Actual Time 8:36 AM AKST 6:12 PM AKST
Civil Twilight 7:56 AM AKST 6:52 PM AKST
Nautical Twilight 7:10 AM AKST 7:38 PM AKST
Astronomical Twilight 6:25 AM AKST 8:23 PM AKST
Moon 10:22 AM AKST (2/16) 1:52 AM AKST (2/16)
Length of Visible Light 10h 56m
Length of Day
9h 35m
Waxing Crescent, 41% of the Moon is Illuminated
Feb 16
Waxing Crescent
Feb 17
First Quarter
Feb 25
Full
Mar 4
Last Quarter
Mar 11
New

Hourly Weather History & Observations

Time (AKST) Temp. Windchill Dew Point Humidity Pressure Visibility Wind Dir Wind Speed Gust Speed Precip Events Conditions
12:53 AM 21.9 °F 11.7 °F 7.0 °F 53% 30.04 in 10.0 mi West 9.2 mph - N/A   Mostly Cloudy
1:53 AM 24.1 °F - 7.0 °F 48% 30.06 in 10.0 mi Calm Calm - N/A   Clear
3:53 AM 25.0 °F 20.7 °F 5.0 °F 43% 30.07 in 10.0 mi NNW 3.5 mph - N/A   Mostly Cloudy
4:53 AM 21.0 °F 13.4 °F 9.0 °F 60% 30.05 in 10.0 mi West 5.8 mph - N/A   Mostly Cloudy
5:53 AM 19.9 °F 11.1 °F 8.1 °F 60% 30.02 in 10.0 mi WNW 6.9 mph - N/A   Mostly Cloudy
6:53 AM 19.9 °F 13.4 °F 6.1 °F 55% 30.03 in 10.0 mi West 4.6 mph - N/A   Mostly Cloudy
7:53 AM 17.1 °F 8.7 °F 8.1 °F 68% 30.02 in 10.0 mi West 5.8 mph - N/A   Mostly Cloudy
8:53 AM 17.1 °F 8.7 °F 8.1 °F 68% 30.00 in 10.0 mi West 5.8 mph - N/A   Mostly Cloudy
9:53 AM 19.0 °F - 10.9 °F 71% 29.99 in 10.0 mi Calm Calm - N/A   Overcast
10:27 AM 21.2 °F - 12.2 °F 68% 29.96 in 10.0 mi Calm Calm - N/A   Overcast
10:53 AM 26.1 °F - 14.0 °F 60% 29.96 in 10.0 mi Calm Calm - N/A   Overcast
11:53 AM 28.9 °F 25.2 °F 17.1 °F 61% 29.93 in 10.0 mi ESE 3.5 mph - N/A   Overcast
12:53 PM 30.0 °F 21.7 °F 23.0 °F 75% 29.89 in 6.0 mi East 9.2 mph - 0.00 in Snow Light Snow
1:11 PM 30.2 °F 23.4 °F 24.8 °F 80% 29.88 in 2.0 mi East 6.9 mph - 0.00 in Snow Light Snow
1:36 PM 30.2 °F 23.4 °F 26.6 °F 86% 29.86 in 4.0 mi ESE 6.9 mph - 0.00 in Snow Light Snow
1:53 PM 30.9 °F 24.3 °F 28.0 °F 89% 29.85 in 3.0 mi East 6.9 mph - 0.00 in Snow Light Snow
2:06 PM 30.2 °F 26.7 °F 28.4 °F 93% 29.83 in 1.8 mi East 3.5 mph - 0.00 in Snow Light Snow
2:19 PM 30.2 °F 26.7 °F 28.4 °F 93% 29.82 in 2.0 mi East 3.5 mph - 0.01 in Snow Light Snow
2:28 PM 30.2 °F 26.7 °F 28.4 °F 93% 29.82 in 1.5 mi East 3.5 mph - 0.01 in Snow Light Snow
2:48 PM 32.0 °F 27.5 °F 30.9 °F 96% 29.79 in 0.8 mi ENE 4.6 mph - 0.02 in Snow Light Snow
2:53 PM 32.0 °F 24.8 °F 30.9 °F 96% 29.79 in 1.0 mi ENE 8.1 mph - 0.02 in Snow Light Snow
3:14 PM 33.8 °F 27.0 °F 32.0 °F 93% 29.76 in 1.0 mi ENE 8.1 mph - 0.01 in Snow Light Snow
3:53 PM 33.1 °F 22.6 °F 32.0 °F 96% 29.72 in 0.5 mi East 16.1 mph - 0.05 in Snow Light Snow
4:17 PM 33.8 °F 22.8 °F 33.8 °F 100% 29.70 in 1.5 mi East 18.4 mph - 0.04 in Snow Light Snow
4:53 PM 33.1 °F 22.6 °F 32.0 °F 96% 29.67 in 1.0 mi East 16.1 mph - 0.07 in Snow Light Snow
5:53 PM 34.0 °F 23.8 °F 33.1 °F 96% 29.62 in 3.0 mi East 16.1 mph - 0.06 in Snow Light Snow
6:53 PM 34.0 °F 23.8 °F 33.1 °F 96% 29.56 in 5.0 mi East 16.1 mph - 0.02 in Rain , Snow Light Rain
7:53 PM 35.1 °F 28.6 °F 33.1 °F 92% 29.54 in 5.0 mi East 8.1 mph - 0.00 in Rain , Snow Light Rain
8:17 PM 35.6 °F 31.7 °F 33.8 °F 93% 29.52 in 5.0 mi East 4.6 mph - 0.00 in Rain , Snow Light Rain
8:53 PM 33.1 °F 30.0 °F 32.0 °F 96% 29.51 in 5.0 mi WSW 3.5 mph - 0.00 in Rain , Snow Light Rain
9:02 PM 33.8 °F 29.6 °F 32.0 °F 93% 29.51 in 10.0 mi SSW 4.6 mph - 0.00 in Rain , Snow Light Rain
9:41 PM 33.8 °F 27.7 °F 32.0 °F 93% 29.49 in 6.0 mi SW 6.9 mph - 0.00 in Rain , Snow Light Rain
9:53 PM 33.1 °F 27.7 °F 32.0 °F 96% 29.49 in 6.0 mi SSW 5.8 mph - 0.00 in Rain , Snow Light Rain
10:23 PM 33.8 °F 29.6 °F 32.0 °F 93% 29.49 in 10.0 mi WSW 4.6 mph - 0.00 in   Mostly Cloudy
10:53 PM 33.1 °F 30.0 °F 32.0 °F 96% 29.49 in 10.0 mi West 3.5 mph - 0.00 in   Overcast
11:05 PM 33.8 °F 30.8 °F 32.0 °F 93% 29.49 in 10.0 mi West 3.5 mph - N/A   Overcast
11:46 PM 32.0 °F 27.5 °F 30.2 °F 93% 29.49 in 10.0 mi SSW 4.6 mph - N/A   Mostly Cloudy
11:53 PM 32.0 °F - 30.9 °F 96% 29.49 in 10.0 mi Calm Calm - N/A   Mostly Cloudy